Theta_e
306 303 302 300 300 299 299 299 299 298 299 298 297 298 298 298 298 299 302 305 303 302 303 305 307 305 305 306 310 321 325 327 328 329 329 317 318 312 307 309 310 310 307 308 306
305 303 303 299 300 299 302 300 298 298 299 299 298 297 299 299 299 300 301 301 299 301 304 309 307 304 303 309 315 321 323 326 320 317 316 317 317 311 312 310 309 306 304 304 304
305 304 299 297 297 297 299 299 299 299 298 298 297 298 299 299 304 301 300 299 300 302 303 307 306 306 307 312 316 318 322 318 312 311 308 314 315 310 311 312 309 307 303 302 302
305 299 298 297 297 297 297 298 297 297 297 298 297 298 299 301 302 300 299 300 300 302 306 306 307 312 314 314 315 317 316 312 310 305 306 310 305 312 308 311 308 306 303 302 301
303 302 299 299 298 298 298 298 298 297 297 298 297 298 299 299 299 299 299 300 301 303 303 306 309 311 313 314 314 315 314 308 305 304 304 303 306 308 308 306 305 302 303 303 302
303 301 301 301 301 299 298 298 298 297 297 298 298 299 299 298 299 298 300 300 301 301 303 305 307 307 311 309 313 307 308 307 304 304 303 304 305 306 306 305 306 302 300 301 302
307 306 307 308 304 299 299 298 297 297 297 297 297 299 298 298 298 298 300 300 300 301 302 303 301 307 306 309 304 306 308 308 304 303 304 301 308 303 303 303 304 303 299 299 301
312 312 312 312 304 297 297 298 297 297 297 297 298 299 296 298 298 298 299 300 300 300 301 301 302 303 306 303 303 306 306 311 306 302 302 304 314 309 303 302 301 299 299 298 298
314 314 314 313 309 299 299 299 297 297 297 298 298 298 298 297 298 298 299 301 300 300 299 300 302 303 303 305 307 307 308 309 308 302 301 302 306 305 301 301 301 298 298 298 297
314 314 314 313 312 301 300 302 299 298 298 297 297 298 297 298 298 298 299 299 301 301 302 302 302 302 302 304 306 307 307 306 306 302 301 301 301 302 301 299 299 298 297 297 298
313 313 313 314 311 303 304 304 298 303 301 298 298 297 298 298 297 299 299 299 300 301 301 302 300 299 301 302 302 302 302 301 303 301 301 300 300 301 301 299 300 301 298 298 299
313 313 313 313 308 305 306 300 298 297 300 300 298 297 297 297 298 298 299 300 300 299 301 300 298 301 301 301 301 301 301 300 302 301 300 301 300 302 303 303 303 302 301 301 299
312 313 313 313 308 307 300 298 297 300 300 302 298 298 297 297 297 299 299 299 300 301 299 298 300 300 301 301 301 301 301 302 303 303 301 300 302 303 305 303 303 303 302 301 301
309 311 313 313 311 311 301 301 298 299 299 304 298 298 298 299 298 298 298 299 299 300 300 300 299 299 299 301 300 301 301 302 302 302 301 303 302 303 305 306 304 302 301 301 300
306 308 310 312 312 309 305 302 299 302 307 303 297 297 298 298 299 299 298 298 299 299 299 299 297 299 300 300 300 301 300 302 302 302 303 303 302 302 303 307 307 303 301 300 299
301 302 304 311 311 312 307 302 303 304 303 301 298 298 298 298 299 299 299 298 299 299 299 299 297 298 299 297 299 299 300 302 302 302 303 302 303 302 307 308 306 305 303 301 299
298 299 301 306 312 309 309 303 314 306 303 300 296 298 299 299 299 299 299 299 298 295 299 299 297 296 297 297 298 300 301 307 308 304 306 301 303 304 305 305 305 304 303 300 299
297 297 297 302 310 311 308 309 320 306 302 303 299 299 298 298 298 298 299 298 298 301 299 299 299 295 295 297 298 298 302 305 305 316 314 301 305 308 305 304 304 302 301 300 299
295 295 296 301 305 308 307 314 318 315 312 304 298 299 295 300 299 298 296 297 299 298 301 302 305 296 295 296 297 298 300 301 303 297 304 303 303 305 305 303 302 302 300 299 299
294 295 295 298 306 305 307 314 313 313 303 303 306 300 296 296 296 297 298 297 301 298 298 303 301 296 295 295 296 298 298 301 300 298 305 307 305 306 308 305 302 302 300 299 298
293 297 299 302 304 302 308 307 308 309 310 309 312 309 305 306 298 297 299 301 300 300 298 295 301 298 295 294 296 296 298 299 302 306 309 310 308 302 305 305 304 301 300 299 298
294 292 299 299 301 301 305 301 305 309 310 311 308 312 309 306 303 303 301 303 299 298 300 298 298 297 296 295 294 296 298 299 303 303 304 308 306 304 306 304 302 303 302 299 298
293 292 296 296 302 303 302 302 305 307 306 305 307 308 311 314 312 306 304 303 299 298 300 301 299 295 298 296 293 293 296 299 300 301 301 303 305 301 304 305 304 304 303 301 300
292 291 295 294 298 300 300 302 303 302 304 305 306 304 307 310 312 313 309 301 298 300 302 300 304 298 305 302 294 292 294 297 297 297 302 305 305 305 304 304 303 304 303 302 301
292 289 289 290 297 297 298 300 300 301 302 302 306 307 308 310 311 312 309 307 299 300 299 301 304 303 303 304 297 296 292 296 299 301 302 304 303 304 304 303 303 301 301 300 300
292 292 287 292 287 293 295 300 299 299 299 300 304 306 305 308 308 308 308 307 307 298 301 298 302 300 302 301 303 304 301 296 298 299 300 302 301 302 301 301 301 301 301 300 300
290 291 292 290 289 291 289 293 295 293 295 300 300 301 301 301 300 301 304 305 305 301 300 298 301 304 310 304 302 305 304 302 299 297 300 301 302 301 301 300 302 303 303 303 299
Wind_Speed
14 13 13 12 12 11 12 12 12 12 12 11 12 11 13 12 10 6 4 3 4 12 10 7 3 3 3 3 4 1 2 5 5 8 10 4 5 2 2 6 2 2 5 4 31
15 15 14 13 13 13 13 13 13 12 13 12 10 10 11 9 8 9 8 7 12 9 5 3 3 6 2 4 4 4 4 7 1 2 2 2 3 7 5 4 2 4 6 23 31
16 16 15 14 14 15 15 15 14 13 13 11 8 8 7 4 2 2 3 7 11 6 5 4 6 5 3 3 4 4 5 2 2 2 4 4 4 5 8 4 7 10 11 11 14
16 16 18 17 16 16 16 17 17 14 13 10 8 5 5 1 4 2 5 7 4 4 4 4 3 3 4 4 5 3 6 1 3 4 4 3 8 3 7 6 2 6 18 13 11
19 19 18 18 19 18 18 18 16 15 14 9 6 5 2 2 7 3 5 2 3 4 8 4 5 1 2 3 3 4 5 1 1 3 4 4 5 6 6 9 5 6 12 14 13
21 21 21 22 22 20 20 20 16 15 12 7 4 3 1 5 2 3 3 2 3 4 5 6 3 6 2 2 1 2 4 4 2 2 3 2 5 1 7 9 10 8 12 12 14
21 22 24 26 27 21 18 17 16 15 8 5 3 2 3 10 3 2 1 2 2 3 2 4 7 3 6 1 1 3 5 6 6 5 4 2 9 12 11 5 10 12 10 11 14
23 24 26 29 28 21 21 19 16 9 4 2 3 3 6 4 4 2 2 2 3 3 4 3 1 2 2 4 3 1 1 4 1 7 2 3 9 3 3 11 12 9 9 10 11
23 25 27 31 31 24 21 15 7 2 1 1 3 3 8 2 2 2 1 2 2 3 3 1 1 2 1 2 2 2 4 5 4 8 3 5 8 5 7 8 9 9 9 11 10
25 27 27 30 32 26 21 8 2 1 2 2 4 2 2 2 2 1 1 3 2 2 2 2 2 1 0 3 5 6 4 5 6 5 3 4 17 16 13 7 10 10 10 11 13
24 27 28 29 28 22 23 3 6 3 1 8 5 4 2 1 2 2 2 2 2 2 5 2 3 7 10 7 1 3 3 5 3 3 4 8 14 19 13 8 14 16 13 14 17
21 24 26 28 22 19 19 6 3 2 8 8 6 3 3 2 2 4 4 5 5 6 5 3 7 5 4 2 4 3 3 6 2 3 3 7 14 19 17 14 17 18 17 17 10
20 22 23 24 15 13 11 6 1 3 3 6 4 3 3 6 4 6 7 4 5 6 7 6 3 4 4 4 4 3 5 4 3 3 4 6 9 8 7 12 14 13 12 17 16
20 20 21 23 4 14 2 8 3 3 4 5 3 1 3 2 4 2 4 3 2 9 6 5 3 4 3 4 6 4 3 2 1 1 4 2 6 7 9 8 6 10 12 12 15
21 19 20 12 14 6 5 7 1 2 4 2 3 2 2 3 2 0 1 1 5 6 6 5 6 4 3 5 6 5 2 3 2 2 3 3 3 8 5 8 8 9 8 8 9
22 22 18 11 7 10 8 3 1 5 7 3 3 4 3 5 3 2 1 1 1 3 2 0 1 2 3 3 2 6 4 3 3 2 2 7 7 5 5 5 2 1 6 8 8
23 23 19 13 3 5 5 1 1 5 3 5 4 4 4 6 5 6 5 4 6 4 5 1 4 1 3 5 5 1 5 1 3 1 6 1 3 7 11 6 4 6 4 6 6
24 27 24 21 10 17 2 1 10 4 7 2 4 3 5 6 5 7 5 3 8 2 3 6 5 8 5 5 5 6 5 5 7 4 3 3 7 6 8 4 2 5 7 6 6
28 26 16 18 23 16 3 8 6 6 5 6 3 3 4 3 4 4 7 6 9 14 9 5 3 1 2 1 4 6 5 1 5 2 3 5 7 10 7 6 6 9 8 9 8
25 24 13 17 18 12 5 24 10 9 5 3 7 7 7 4 5 7 7 6 5 8 2 5 1 1 2 1 2 3 1 2 2 2 4 5 5 7 5 8 7 7 9 9 8
18 5 4 8 19 2 13 12 9 8 4 8 7 7 8 8 9 6 6 5 6 4 4 4 4 1 3 8 9 4 3 2 2 4 5 2 6 7 9 8 10 11 8 9 10
5 4 3 8 4 3 15 5 6 7 14 16 6 10 7 7 5 6 11 9 7 9 10 7 5 5 9 1 1 2 6 6 4 5 4 3 8 4 4 5 6 7 7 7 7
3 4 6 6 7 12 6 5 4 10 7 7 10 12 11 12 5 7 6 4 9 10 6 5 4 1 6 4 4 4 7 5 3 3 7 5 7 1 2 1 2 3 3 4 7
3 3 2 2 6 7 11 14 17 5 8 9 9 2 4 11 14 5 6 1 2 4 9 5 2 7 11 7 6 4 6 9 6 4 5 18 4 1 4 1 2 3 4 7 7
3 4 5 4 4 14 12 9 11 9 5 3 10 18 9 8 8 10 7 3 3 3 5 5 6 7 15 1 3 6 6 12 17 22 9 19 14 14 13 10 8 9 8 8 10
3 2 4 4 3 8 11 3 18 20 13 20 8 11 6 18 18 14 7 7 5 3 6 5 6 4 11 10 9 5 9 13 19 11 21 21 18 3 5 5 6 10 9 11 12
5 5 3 5 7 9 4 5 7 11 7 8 11 13 16 11 5 10 8 4 1 8 9 8 4 6 16 5 4 3 25 12 8 9 15 17 24 6 8 14 18 21 15 15 12
Wind_Direction
8 6 3 355 345 341 335 331 325 324 317 307 308 316 308 309 304 284 243 242 279 292 303 307 303 257 212 243 235 162 237 227 231 235 247 182 143 44 191 114 56 65 125 192 156
3 0 354 350 343 337 332 327 322 317 317 309 308 311 309 310 313 249 242 251 296 289 292 325 298 164 211 223 196 157 195 223 272 356 321 252 154 155 140 126 168 84 57 131 150
358 353 348 342 338 336 329 324 319 313 316 313 311 319 325 318 343 237 220 273 288 264 255 253 286 183 236 176 207 212 220 258 354 11 334 274 173 182 140 207 207 184 162 155 158
354 355 347 342 340 333 327 324 318 313 316 304 298 314 342 347 265 200 307 306 277 234 212 212 249 176 215 211 204 246 250 237 330 11 1 340 303 193 180 208 220 190 175 163 169
360 357 353 348 341 332 325 322 317 313 309 290 291 305 318 255 248 238 310 299 163 146 245 249 178 202 282 263 156 209 308 2 134 358 308 324 269 248 250 230 216 109 157 177 178
1 359 356 352 343 332 324 320 314 313 305 280 265 276 216 255 211 295 318 170 170 190 262 269 224 152 258 36 229 335 297 287 233 238 255 263 267 67 249 233 231 200 177 190 187
2 0 359 354 345 335 329 322 313 307 293 275 243 203 270 245 246 287 117 87 151 184 252 262 311 265 138 305 355 322 316 290 231 206 224 140 276 232 219 185 215 207 210 189 200
3 358 358 356 352 347 336 322 310 298 284 250 185 174 245 228 221 247 168 122 95 138 231 231 273 82 351 137 130 182 223 285 36 132 201 153 264 264 203 196 221 219 208 207 198
355 352 354 354 352 347 340 327 318 275 133 166 169 193 268 193 200 260 192 208 146 137 171 198 33 143 46 158 33 206 245 234 274 188 133 184 275 274 355 198 229 223 216 213 215
346 346 349 351 351 349 347 340 352 33 130 148 290 355 227 237 164 224 217 190 232 135 90 137 78 121 40 162 223 193 210 254 240 194 170 224 264 269 273 281 254 231 229 215 212
338 340 344 348 349 358 4 16 18 15 325 194 198 230 165 185 213 208 208 198 184 223 167 184 133 211 208 216 333 108 216 245 258 197 209 232 258 270 262 243 247 237 224 221 216
328 331 338 345 345 2 30 72 142 259 303 257 212 243 193 177 192 204 177 173 173 200 138 73 226 195 127 162 205 210 249 264 260 181 204 280 268 268 261 241 230 226 224 224 211
327 324 329 337 338 354 33 60 340 173 268 291 190 200 188 161 235 212 164 187 194 179 197 175 195 137 168 171 176 217 202 236 250 301 232 316 282 259 271 240 244 227 218 216 213
334 333 330 331 326 338 338 351 11 159 44 262 231 213 128 219 255 138 195 172 190 206 182 230 180 177 166 204 158 225 183 180 253 15 247 183 284 286 277 264 226 231 217 210 208
326 323 323 329 298 312 329 338 76 124 337 210 183 137 103 167 149 196 174 72 195 189 124 233 161 174 177 211 174 217 137 136 138 201 349 240 264 271 253 263 244 235 227 224 201
327 320 322 317 248 264 292 342 126 38 253 265 144 179 145 188 192 153 184 308 201 130 83 194 335 211 193 84 16 144 100 59 51 83 316 218 194 248 224 241 310 354 211 214 199
325 318 300 276 246 218 298 224 354 177 328 265 196 172 206 191 192 167 171 191 171 96 226 172 215 160 145 91 5 163 104 327 344 4 228 307 174 262 273 255 230 211 183 175 165
322 316 298 253 256 251 160 51 225 214 230 277 156 157 201 166 228 185 170 229 232 211 108 169 288 169 183 194 183 188 180 169 204 201 247 20 231 252 243 263 212 173 164 154 167
323 318 289 256 227 218 131 235 227 187 185 182 128 170 292 218 165 154 211 214 210 176 179 143 261 51 47 19 135 189 205 255 101 55 53 224 274 295 227 193 167 167 163 179 182
319 306 270 250 218 174 204 232 229 204 163 212 220 174 200 222 165 174 188 214 219 186 142 208 49 8 327 291 247 190 209 108 354 161 248 270 260 233 231 215 215 220 207 199 182
311 292 271 196 187 180 218 222 215 226 200 209 203 246 221 195 188 201 215 276 189 137 99 140 125 332 45 204 185 162 210 189 142 172 187 264 257 227 229 222 205 226 216 201 192
287 273 311 175 201 213 233 193 223 237 222 230 203 217 201 187 225 239 212 214 169 155 167 209 151 177 204 197 25 232 202 170 140 230 233 171 258 257 222 193 192 227 221 202 184
242 253 261 208 226 228 244 264 264 253 208 200 218 213 199 232 228 208 234 258 163 164 144 192 224 79 339 354 349 203 202 203 129 81 216 154 263 19 350 7 75 153 120 175 194
259 282 233 207 253 268 259 260 256 219 260 231 234 191 180 236 227 232 225 200 84 115 70 132 239 188 222 196 136 191 209 199 149 166 188 231 249 348 187 195 168 204 237 219 205
225 236 206 275 233 240 251 272 281 277 230 237 238 235 224 241 219 224 205 187 36 67 63 110 242 299 286 270 152 197 181 189 206 221 198 252 219 231 262 277 264 223 221 219 219
224 241 318 262 292 284 290 266 245 256 250 273 262 268 257 239 243 255 196 185 199 124 153 169 209 130 270 259 222 239 240 217 216 230 243 256 263 10 247 267 294 272 238 227 224
275 241 204 260 274 292 272 273 299 331 299 285 288 299 285 287 341 299 299 311 194 172 180 161 194 182 253 169 116 264 238 223 215 211 220 236 250 220 240 243 245 250 245 248 232